User: anonymous   Login
Location: Unspecified
(0.0000°N, 0.0000°E)
Time: 18:08:48
(UTC+00:00)
Language:

ERS 15 - Orbit

View from above orbital plane
View from above orbital plane
View from above satellite
View from above satellite

Ground track
Ground track

The orbit data is extracted from the following two-line orbital elements,

1 02412U 66077C   18016.25708897  .00000002  00000-0  00000+0 0  9998
2 02412  90.1972 246.5008 0014098 261.0752  98.8504  8.59069853610553
Epoch (UTC): 16 January 2018 06:10:12
Eccentricity: 0.0014098
inclination: 90.1972°
perigee height: 3678 km
apogee height: 3706 km
right ascension of ascending node: 246.5008°
argument of perigee: 261.0752°
revolutions per day: 8.59069853
mean anomaly at epoch: 98.8504°
orbit number at epoch: 61055

The dashed part of the orbit path shows where the satellite is in the earth's shadow,  

DLR